Crosby, ND

12:42 AM CDT on October 18, 2017 (GMT -0500)
Crosby

Weather History for KD50 - August, 2014

Change the Weather History Date:

Thursday, August 7, 2014

  Actual Average (KISN) Record (KISN)
Temperature  
Mean Temperature 72 °F -  
Max Temperature 84 °F 86 °F 108 °F (1949)
Min Temperature 60 °F 56 °F 39 °F (1901)
Cooling Degree Days 7    
Growing Degree Days 22 (Base 50)    
Moisture  
Dew Point 66 °F    
Average Humidity 87    
Maximum Humidity 100    
Minimum Humidity 51    
Precipitation  
Precipitation 0.00 in - - ()
Sea Level Pressure  
Sea Level Pressure 29.93 in    
Wind  
Wind Speed 9 mph (South)    
Max Wind Speed 16 mph    
Max Gust Speed 22 mph    
Averages and records for this station are not official NWS values.
T = Trace of Precipitation, MM = Missing Value Source: NWS Daily Summary

Daily Weather History Graph

Daily Weather History Graph

Search for Another Location

Airport or City:

Trip Planner

Search our weather history database for the weather conditions in past years. The results will help you decide how hot, cold, wet, or windy it might be!

Date:

Astronomy

Aug. 07, 2014 Rise Set
Actual Time 6:34 AM CDT 9:22 PM CDT
Civil Twilight 5:58 AM CDT 9:58 PM CDT
Nautical Twilight 5:11 AM CDT 10:44 PM CDT
Astronomical Twilight 4:15 AM CDT 11:40 PM CDT
Moon 6:44 PM CDT (8/7) 3:02 AM CDT (8/7)
Length of Visible Light 16h 00m
Length of Day
14h 47m
Waxing Gibbous, 87% of the Moon is Illuminated
Aug 7
Waxing Gibbous
Aug 10
Full
Aug 17
Last Quarter
Aug 25
New
Sep 2
First Quarter

Hourly Weather History & Observations

Time (CDT) Temp. Heat Index Dew Point Humidity Pressure Visibility Wind Dir Wind Speed Gust Speed Precip Events Conditions
12:15 AM 64.4 °F - 64.4 °F 100% 29.97 in - South 10.4 mph - N/A   Unknown
12:55 AM 62.6 °F - 62.6 °F 100% 29.96 in - South 9.2 mph - N/A   Unknown
1:15 AM 62.6 °F - 62.6 °F 100% 29.97 in - South 8.1 mph - N/A   Unknown
1:35 AM 62.6 °F - 62.6 °F 100% 29.97 in - South 6.9 mph - N/A   Unknown
1:55 AM 62.6 °F - 62.6 °F 100% 29.97 in - South 6.9 mph - N/A   Unknown
2:15 AM 62.6 °F - 62.6 °F 100% 29.96 in - South 6.9 mph - N/A   Unknown
2:35 AM 60.8 °F - 60.8 °F 100% 29.96 in - South 5.8 mph - N/A   Unknown
2:55 AM 60.8 °F - 60.8 °F 100% 29.95 in - South 6.9 mph - N/A   Unknown
3:15 AM 62.6 °F - 62.6 °F 100% 29.95 in - South 8.1 mph - N/A   Unknown
3:35 AM 60.8 °F - 60.8 °F 100% 29.95 in - South 6.9 mph - N/A   Unknown
3:55 AM 62.6 °F - 62.6 °F 100% 29.94 in - South 8.1 mph - N/A   Unknown
4:15 AM 62.6 °F - 62.6 °F 100% 29.94 in - SSW 9.2 mph - N/A   Unknown
4:35 AM 62.6 °F - 62.6 °F 100% 29.94 in - SSW 9.2 mph - N/A   Unknown
4:55 AM 62.6 °F - 62.6 °F 100% 29.94 in - SSW 8.1 mph - N/A   Unknown
5:15 AM 60.8 °F - 60.8 °F 100% 29.94 in - SSW 8.1 mph - N/A   Unknown
5:35 AM 60.8 °F - 60.8 °F 100% 29.94 in - SSW 8.1 mph - N/A   Unknown
5:55 AM 60.8 °F - 60.8 °F 100% 29.94 in - SSW 5.8 mph - N/A   Unknown
6:15 AM 60.8 °F - 60.8 °F 100% 29.94 in - SSW 6.9 mph - N/A   Unknown
6:35 AM 60.8 °F - 60.8 °F 100% 29.95 in - SSW 6.9 mph - N/A   Unknown
6:55 AM 60.8 °F - 60.8 °F 100% 29.95 in - SSW 11.5 mph - N/A   Unknown
7:15 AM 62.6 °F - 62.6 °F 100% 29.95 in - SSW 11.5 mph - N/A   Overcast
7:35 AM 62.6 °F - 62.6 °F 100% 29.95 in - SSW 9.2 mph - N/A   Overcast
7:55 AM 62.6 °F - 62.6 °F 100% 29.95 in - SSW 10.4 mph - N/A   Overcast
8:15 AM 62.6 °F - 62.6 °F 100% 29.96 in - SSW 9.2 mph - N/A   Overcast
8:35 AM 62.6 °F - 62.6 °F 100% 29.95 in - South 10.4 mph - N/A   Overcast
8:55 AM 64.4 °F - 64.4 °F 100% 29.95 in - SSW 8.1 mph - N/A   Overcast
9:15 AM 64.4 °F - 64.4 °F 100% 29.96 in - South 9.2 mph - N/A   Overcast
9:35 AM 64.4 °F - 64.4 °F 100% 29.96 in - SSW 10.4 mph - N/A   Overcast
9:55 AM 66.2 °F - 66.2 °F 100% 29.96 in - SSW 6.9 mph - N/A   Overcast
10:15 AM 68.0 °F - 68.0 °F 100% 29.96 in - South 9.2 mph - N/A   Mostly Cloudy
10:35 AM 69.8 °F - 69.8 °F 100% 29.95 in - South 10.4 mph - N/A   Unknown
10:55 AM 71.6 °F - 71.6 °F 100% 29.95 in - South 8.1 mph - N/A   Unknown
11:15 AM 73.4 °F - 73.4 °F 100% 29.95 in - South 9.2 mph - N/A   Unknown
11:35 AM 73.4 °F - 73.4 °F 100% 29.95 in - South 10.4 mph - N/A   Unknown
11:55 AM 75.2 °F - 73.4 °F 94% 29.95 in - South 11.5 mph - N/A   Unknown
12:15 PM 75.2 °F - 73.4 °F 94% 29.95 in - SSW 10.4 mph - N/A   Unknown
12:35 PM 75.2 °F - 71.6 °F 89% 29.95 in - South 10.4 mph - N/A Thunderstorm Thunderstorm
12:55 PM 77.0 °F - 73.4 °F 89% 29.95 in - SSW 11.5 mph - N/A   Unknown
1:15 PM 77.0 °F - 71.6 °F 83% 29.94 in - SSW 10.4 mph - N/A   Clear
1:35 PM 78.8 °F - 71.6 °F 78% 29.94 in - South 9.2 mph - N/A   Clear
1:55 PM 80.6 °F 85.4 °F 73.4 °F 79% 29.94 in - SSW 6.9 mph - N/A   Clear
2:15 PM 80.6 °F 84.6 °F 71.6 °F 74% 29.94 in - South 8.1 mph - N/A   Clear
2:35 PM 80.6 °F 84.6 °F 71.6 °F 74% 29.93 in - South 8.1 mph - N/A   Clear
2:55 PM 82.4 °F 86.3 °F 69.8 °F 66% 29.93 in - South 6.9 mph - N/A   Clear
3:15 PM 82.4 °F 84.6 °F 66.2 °F 58% 29.92 in - SSE 8.1 mph - N/A   Clear
3:35 PM 82.4 °F 84.6 °F 66.2 °F 58% 29.92 in - SSW 8.1 mph - N/A   Clear
3:55 PM 82.4 °F 84.6 °F 66.2 °F 58% 29.91 in - SSW 6.9 mph - N/A   Clear
4:15 PM 82.4 °F 84.6 °F 66.2 °F 58% 29.91 in - South 8.1 mph - N/A   Clear
4:35 PM 84.2 °F 86.6 °F 66.2 °F 55% 29.90 in - SSW 6.9 mph - N/A   Clear
4:55 PM 84.2 °F 86.6 °F 66.2 °F 55% 29.90 in - South 10.4 mph - N/A   Clear
5:15 PM 84.2 °F 86.6 °F 66.2 °F 55% 29.89 in - South 11.5 mph - N/A   Clear
5:35 PM 82.4 °F 83.9 °F 64.4 °F 54% 29.89 in - SSE 10.4 mph - N/A   Clear
5:55 PM 82.4 °F 83.4 °F 62.6 °F 51% 29.89 in - SSE 9.2 mph - N/A   Clear
6:15 PM 82.4 °F 83.4 °F 62.6 °F 51% 29.89 in - South 8.1 mph - N/A   Clear
6:35 PM 82.4 °F 83.4 °F 62.6 °F 51% 29.89 in - South 11.5 mph - N/A   Clear
6:55 PM 82.4 °F 83.4 °F 62.6 °F 51% 29.89 in - SSE 10.4 mph - N/A   Clear
7:15 PM 80.6 °F 82.3 °F 64.4 °F 58% 29.88 in - SSE 10.4 mph 17.3 mph N/A   Clear
7:35 PM 80.6 °F 82.3 °F 64.4 °F 58% 29.88 in - SSE 11.5 mph - N/A   Clear
7:55 PM 78.8 °F - 68.0 °F 69% 29.89 in - SSE 10.4 mph - N/A   Clear
8:15 PM 77.0 °F - 68.0 °F 74% 29.88 in - SSE 11.5 mph - N/A   Clear
8:35 PM 77.0 °F - 68.0 °F 74% 29.89 in - SSE 11.5 mph - N/A   Clear
8:55 PM 75.2 °F - 68.0 °F 78% 29.89 in - SSE 10.4 mph - N/A   Clear
9:15 PM 73.4 °F - 68.0 °F 83% 29.89 in - SSE 11.5 mph - N/A   Clear
9:35 PM 73.4 °F - 71.6 °F 94% 29.89 in - SSE 11.5 mph 17.3 mph N/A   Unknown
9:55 PM 73.4 °F - 71.6 °F 94% 29.90 in - SSE 13.8 mph 19.6 mph N/A   Unknown
10:15 PM 73.4 °F - 71.6 °F 94% 29.91 in - SSE 15.0 mph 21.9 mph N/A Thunderstorm Thunderstorm
10:35 PM 71.6 °F - 71.6 °F 100% 29.91 in - SSE 12.7 mph - N/A   Unknown
10:55 PM 71.6 °F - 71.6 °F 100% 29.92 in - South 11.5 mph - N/A   Unknown
11:15 PM 71.6 °F - 71.6 °F 100% 29.92 in - SSE 10.4 mph 16.1 mph N/A   Unknown
11:35 PM 71.6 °F - 71.6 °F 100% 29.91 in - South 11.5 mph 18.4 mph N/A   Unknown
11:55 PM 71.6 °F - 71.6 °F 100% 29.91 in - South 16.1 mph - N/A   Unknown